19.04.2024;22:00;4
19.04.2024;21:00;4
19.04.2024;20:00;4
19.04.2024;19:00;4
19.04.2024;18:00;5
19.04.2024;17:00;5
19.04.2024;16:00;5
19.04.2024;15:00;7
19.04.2024;14:00;8
19.04.2024;13:00;7
19.04.2024;12:00;6
19.04.2024;11:00;8
19.04.2024;10:00;10
19.04.2024;09:00;10
19.04.2024;08:00;12
19.04.2024;07:00;14
19.04.2024;06:00;14
19.04.2024;05:00;13
19.04.2024;04:00;11
19.04.2024;03:00;8
19.04.2024;02:00;7
19.04.2024;01:00;6
18.04.2024;24:00;#
18.04.2024;23:00;5
18.04.2024;22:00;6
18.04.2024;21:00;7
18.04.2024;20:00;7
18.04.2024;19:00;7
18.04.2024;18:00;5
18.04.2024;17:00;5
18.04.2024;16:00;5
18.04.2024;15:00;6
18.04.2024;14:00;#
18.04.2024;13:00;8
18.04.2024;12:00;9
18.04.2024;11:00;9
18.04.2024;10:00;11
18.04.2024;09:00;12
18.04.2024;08:00;13
18.04.2024;07:00;13
18.04.2024;06:00;10
18.04.2024;05:00;8
18.04.2024;04:00;6
18.04.2024;03:00;5
18.04.2024;02:00;4
18.04.2024;01:00;3
17.04.2024;24:00;4
17.04.2024;23:00;5
17.04.2024;22:00;5
17.04.2024;21:00;7
17.04.2024;20:00;7
17.04.2024;19:00;7
17.04.2024;18:00;6
17.04.2024;17:00;7
17.04.2024;16:00;5
17.04.2024;15:00;4
17.04.2024;14:00;7
17.04.2024;13:00;7
17.04.2024;12:00;7
17.04.2024;11:00;5
17.04.2024;10:00;3
17.04.2024;09:00;2
17.04.2024;08:00;1
17.04.2024;07:00;1
17.04.2024;06:00;1
17.04.2024;05:00;0
17.04.2024;04:00;1
17.04.2024;03:00;1
17.04.2024;02:00;1
17.04.2024;01:00;1
16.04.2024;24:00;1
16.04.2024;23:00;2
16.04.2024;22:00;2
16.04.2024;21:00;3
16.04.2024;20:00;3
16.04.2024;19:00;3
16.04.2024;18:00;3
16.04.2024;17:00;4
16.04.2024;16:00;4
16.04.2024;15:00;4
16.04.2024;14:00;6
16.04.2024;13:00;4
16.04.2024;12:00;3
16.04.2024;11:00;3
16.04.2024;10:00;2
16.04.2024;09:00;2
16.04.2024;08:00;2
16.04.2024;07:00;2
16.04.2024;06:00;3
16.04.2024;05:00;3
16.04.2024;04:00;2
16.04.2024;03:00;3
16.04.2024;02:00;2
16.04.2024;01:00;2
15.04.2024;24:00;7
15.04.2024;23:00;7
15.04.2024;22:00;7
15.04.2024;21:00;8
15.04.2024;20:00;8
15.04.2024;19:00;10
15.04.2024;18:00;12
15.04.2024;17:00;11
15.04.2024;16:00;12
15.04.2024;15:00;10
15.04.2024;14:00;9
15.04.2024;13:00;8
15.04.2024;12:00;13
15.04.2024;11:00;18
15.04.2024;10:00;17
15.04.2024;09:00;17
15.04.2024;08:00;15
15.04.2024;07:00;14
15.04.2024;06:00;12
15.04.2024;05:00;11
15.04.2024;04:00;14
15.04.2024;03:00;18
15.04.2024;02:00;21
15.04.2024;01:00;24
14.04.2024;24:00;38
14.04.2024;23:00;24
14.04.2024;22:00;18
14.04.2024;21:00;21
14.04.2024;20:00;20
14.04.2024;19:00;17
14.04.2024;18:00;16
14.04.2024;17:00;15
14.04.2024;16:00;14
14.04.2024;15:00;14
14.04.2024;14:00;12
14.04.2024;13:00;12
14.04.2024;12:00;11
14.04.2024;11:00;12
14.04.2024;10:00;12
14.04.2024;09:00;13
14.04.2024;08:00;14
14.04.2024;07:00;16
14.04.2024;06:00;17
14.04.2024;05:00;17
14.04.2024;04:00;17
14.04.2024;03:00;18
14.04.2024;02:00;20
14.04.2024;01:00;24
